Location: ?????
(32.7281°N, 34.9563°E)
Time: 12:34:48
(UTC+00:00)

Meteor 2-10 Rocket - Pass Details

Date: 29 October 2020
Orbit: 733 x 885 km, 81.2° (Epoch: 27 November)

Event Time Altitude Azimuth Distance (km) Brightness Sun altitude
Rises 16:02:58 0° 191° (S) 3,334 7.0 -15.5°
Reaches altitude 10° 16:05:24 10° 193° (SSW) 2,382 6.3 -16.0°
Maximum altitude 16:10:45 75° 278° (W) 813 3.7 -17.1°
Drops below altitude 10° 16:15:56 10° 4° (N) 2,300 5.9 -18.2°
Sets 16:18:15 0° 6° (N) 3,211 6.6 -18.7°
